When you browse on this site, cookies collect data to enhance your experience and personalize the content and advertising you see.
Visit our Privacy Policy to learn more. By continuing to use the site, you agree to this use of cookies and data.
  • In Netherlands
  • List of Countries
  • For 7 days
  • Water Temperature
  • Satellite Maps
  • Weather Map
  • Weather Widgets
  • user-avatar
    Login

    Hourly Weather Novosadkovskiy

    Today, 21 May, Tuesday

    Time Temperature Precipitation Wind Pressure Humidity
    00:00 +14°C° 0 mm 3 mps 763 mmHg 55%
    01:00 +13°C° 0 mm 3 mps 763 mmHg 55%
    02:00 +13°C° 0 mm 3 mps 763 mmHg 55%
    03:00 +13°C° 0 mm 2 mps 762 mmHg 58%
    04:00 +13°C° 0 mm 2 mps 763 mmHg 59%
    05:00 +14°C° 0 mm 2 mps 763 mmHg 61%
    06:00 +14°C° 0 mm 2 mps 763 mmHg 63%
    07:00 +16°C° 0 mm 3 mps 763 mmHg 58%
    08:00 +18°C° 0 mm 3 mps 763 mmHg 53%
    09:00 +20°C° 0 mm 4 mps 763 mmHg 47%
    10:00 +21°C° 0 mm 4 mps 763 mmHg 44%
    11:00 +23°C° 0 mm 4 mps 763 mmHg 42%
    12:00 +25°C° 0 mm 4 mps 764 mmHg 39%
    13:00 +25°C° 0 mm 4 mps 763 mmHg 39%
    14:00 +25°C° 0 mm 4 mps 763 mmHg 39%
    15:00 +26°C° 0 mm 4 mps 763 mmHg 39%
    16:00 +25°C° 0 mm 4 mps 763 mmHg 43%
    17:00 +25°C° 0 mm 3 mps 762 mmHg 48%
    18:00 +24°C° 0 mm 2 mps 762 mmHg 53%
    19:00 +21°C° 0 mm 3 mps 762 mmHg 54%
    20:00 +19°C° 0 mm 3 mps 762 mmHg 56%
    21:00 +17°C° 0 mm 4 mps 762 mmHg 58%
    22:00 +17°C° 0 mm 4 mps 762 mmHg 55%
    23:00 +16°C° 0 mm 5 mps 762 mmHg 52%

    Tomorrow, 22 May, Wednesday

    Time Temperature Precipitation Wind Pressure Humidity
    00:00 +16°C° 0 mm 5 mps 762 mmHg 49%
    01:00 +15°C° 0 mm 5 mps 762 mmHg 51%
    02:00 +15°C° 0 mm 5 mps 762 mmHg 53%
    03:00 +14°C° 0 mm 4 mps 762 mmHg 55%
    04:00 +14°C° 0 mm 5 mps 762 mmHg 54%
    05:00 +14°C° 0 mm 5 mps 761 mmHg 53%
    06:00 +14°C° 0 mm 5 mps 761 mmHg 52%
    07:00 +15°C° 0 mm 6 mps 761 mmHg 50%
    08:00 +16°C° 0 mm 7 mps 761 mmHg 48%
    09:00 +17°C° 0 mm 8 mps 760 mmHg 46%
    10:00 +18°C° 0 mm 8 mps 760 mmHg 44%
    11:00 +21°C° 0 mm 8 mps 760 mmHg 43%
    12:00 +22°C° 0 mm 8 mps 759 mmHg 42%
    13:00 +22°C° 0 mm 7 mps 759 mmHg 45%
    14:00 +22°C° 0 mm 7 mps 759 mmHg 47%
    15:00 +22°C° 0 mm 6 mps 759 mmHg 50%
    16:00 +21°C° 0.4 mm 6 mps 758 mmHg 61%
    17:00 +20°C° 0.4 mm 5 mps 758 mmHg 72%
    18:00 +18°C° 0.4 mm 4 mps 758 mmHg 83%
    19:00 +18°C° 0.7 mm 4 mps 758 mmHg 86%
    20:00 +17°C° 0.7 mm 4 mps 758 mmHg 89%
    21:00 +17°C° 0.7 mm 4 mps 757 mmHg 92%
    22:00 +15°C° 0.1 mm 4 mps 757 mmHg 93%
    23:00 +15°C° 0.1 mm 4 mps 757 mmHg 93%

    Day after tomorrow, 23 May, Thursday

    Time Temperature Precipitation Wind Pressure Humidity
    00:00 +15°C° 0.1 mm 4 mps 757 mmHg 94%
    01:00 +15°C° 0.1 mm 4 mps 757 mmHg 95%
    02:00 +14°C° 0.1 mm 4 mps 757 mmHg 96%
    03:00 +14°C° 0.1 mm 4 mps 757 mmHg 97%
    04:00 +14°C° 0 mm 4 mps 756 mmHg 96%
    05:00 +15°C° 0 mm 4 mps 756 mmHg 95%
    06:00 +15°C° 0 mm 4 mps 756 mmHg 94%
    07:00 +18°C° 0.1 mm 4 mps 756 mmHg 86%
    08:00 +19°C° 0.1 mm 5 mps 756 mmHg 78%
    09:00 +21°C° 0.1 mm 5 mps 756 mmHg 71%
    10:00 +22°C° 0 mm 6 mps 756 mmHg 65%
    11:00 +22°C° 0 mm 6 mps 756 mmHg 60%
    12:00 +23°C° 0 mm 6 mps 756 mmHg 55%
    13:00 +23°C° 0.2 mm 7 mps 756 mmHg 56%
    14:00 +23°C° 0.2 mm 7 mps 756 mmHg 57%
    15:00 +23°C° 0.2 mm 8 mps 755 mmHg 58%
    16:00 +23°C° 0.4 mm 7 mps 755 mmHg 61%
    17:00 +22°C° 0.4 mm 6 mps 755 mmHg 64%
    18:00 +22°C° 0.4 mm 5 mps 755 mmHg 68%
    19:00 +20°C° 0.3 mm 4 mps 755 mmHg 73%
    20:00 +19°C° 0.3 mm 4 mps 755 mmHg 78%
    21:00 +17°C° 0.3 mm 4 mps 755 mmHg 84%
    22:00 +17°C° 0.3 mm 4 mps 755 mmHg 85%
    23:00 +16°C° 0.3 mm 5 mps 755 mmHg 86%

    24 May, Friday

    Time Temperature Precipitation Wind Pressure Humidity
    00:00 +16°C° 0.3 mm 5 mps 755 mmHg 87%
    01:00 +15°C° 0 mm 5 mps 755 mmHg 89%
    02:00 +15°C° 0 mm 4 mps 755 mmHg 90%
    03:00 +15°C° 0 mm 4 mps 755 mmHg 92%
    04:00 +15°C° 0 mm 4 mps 755 mmHg 92%
    05:00 +15°C° 0 mm 4 mps 756 mmHg 91%
    06:00 +15°C° 0 mm 4 mps 756 mmHg 91%
    07:00 +18°C° 0 mm 4 mps 756 mmHg 84%
    08:00 +20°C° 0 mm 4 mps 756 mmHg 77%
    09:00 +22°C° 0 mm 4 mps 757 mmHg 71%
    10:00 +23°C° 0 mm 4 mps 757 mmHg 65%
    11:00 +25°C° 0 mm 4 mps 757 mmHg 60%
    12:00 +26°C° 0 mm 3 mps 757 mmHg 54%
    13:00 +27°C° 0 mm 3 mps 756 mmHg 51%
    14:00 +28°C° 0 mm 3 mps 756 mmHg 49%
    15:00 +28°C° 0 mm 3 mps 756 mmHg 46%
    16:00 +28°C° 0 mm 2 mps 756 mmHg 50%
    17:00 +27°C° 0 mm 2 mps 756 mmHg 54%
    18:00 +26°C° 0 mm 2 mps 756 mmHg 58%
    19:00 +25°C° 0 mm 2 mps 756 mmHg 63%
    20:00 +23°C° 0 mm 1 mps 756 mmHg 68%
    21:00 +21°C° 0 mm 1 mps 756 mmHg 73%
    22:00 +20°C° 0 mm 1 mps 756 mmHg 75%
    23:00 +18°C° 0 mm 0 mps 756 mmHg 78%

    25 May, Saturday

    Time Temperature Precipitation Wind Pressure Humidity
    00:00 +17°C° 0 mm 0 mps 756 mmHg 80%
    01:00 +17°C° 0 mm 0 mps 756 mmHg 80%
    02:00 +17°C° 0 mm 0 mps 756 mmHg 81%
    03:00 +17°C° 0 mm 0 mps 756 mmHg 81%
    04:00 +19°C° 0 mm 1 mps 756 mmHg 80%
    05:00 +19°C° 0 mm 2 mps 756 mmHg 80%
    06:00 +19°C° 0 mm 2 mps 755 mmHg 79%
    07:00 +21°C° 0 mm 3 mps 755 mmHg 73%
    08:00 +23°C° 0 mm 4 mps 755 mmHg 67%
    09:00 +26°C° 0 mm 5 mps 755 mmHg 61%
    10:00 +26°C° 0 mm 5 mps 755 mmHg 62%
    11:00 +26°C° 0 mm 5 mps 755 mmHg 62%
    12:00 +26°C° 0 mm 5 mps 755 mmHg 62%
    13:00 +27°C° 0.1 mm 5 mps 754 mmHg 59%
    14:00 +27°C° 0.1 mm 6 mps 754 mmHg 57%
    15:00 +28°C° 0.1 mm 6 mps 753 mmHg 54%
    16:00 +28°C° 0.1 mm 6 mps 752 mmHg 57%
    17:00 +28°C° 0.1 mm 5 mps 752 mmHg 59%
    18:00 +27°C° 0.1 mm 4 mps 751 mmHg 62%
    19:00 +26°C° 0.2 mm 5 mps 751 mmHg 64%
    20:00 +24°C° 0.2 mm 6 mps 751 mmHg 66%
    21:00 +22°C° 0.2 mm 7 mps 751 mmHg 68%
    22:00 +22°C° 0.5 mm 7 mps 751 mmHg 74%
    23:00 +21°C° 0.5 mm 7 mps 751 mmHg 81%

    26 May, Sunday

    Time Temperature Precipitation Wind Pressure Humidity
    00:00 +20°C° 0.5 mm 7 mps 751 mmHg 87%
    01:00 +19°C° 0 mm 6 mps 751 mmHg 88%
    02:00 +19°C° 0 mm 6 mps 752 mmHg 88%
    03:00 +17°C° 0 mm 6 mps 752 mmHg 89%
    04:00 +17°C° 0 mm 6 mps 752 mmHg 89%
    05:00 +17°C° 0 mm 6 mps 753 mmHg 90%
    06:00 +17°C° 0 mm 7 mps 753 mmHg 90%
    07:00 +18°C° 0 mm 7 mps 753 mmHg 83%
    08:00 +20°C° 0 mm 8 mps 754 mmHg 76%
    09:00 +22°C° 0 mm 8 mps 754 mmHg 69%
    10:00 +22°C° 0.1 mm 9 mps 754 mmHg 66%
    11:00 +23°C° 0.1 mm 9 mps 754 mmHg 64%
    12:00 +24°C° 0.1 mm 9 mps 754 mmHg 61%
    13:00 +24°C° 0.7 mm 9 mps 754 mmHg 63%
    14:00 +24°C° 0.7 mm 9 mps 754 mmHg 64%
    15:00 +24°C° 0.7 mm 9 mps 754 mmHg 66%
    16:00 +23°C° 0.6 mm 9 mps 754 mmHg 67%
    17:00 +23°C° 0.6 mm 8 mps 754 mmHg 69%
    18:00 +22°C° 0.6 mm 7 mps 754 mmHg 71%
    19:00 +21°C° 0 mm 6 mps 755 mmHg 75%
    20:00 +20°C° 0 mm 5 mps 755 mmHg 80%
    21:00 +19°C° 0 mm 4 mps 756 mmHg 85%
    22:00 +17°C° 0 mm 5 mps 756 mmHg 86%
    23:00 +17°C° 0 mm 5 mps 756 mmHg 88%
    Show more